BMCB-1 Weather Reports


time (UTC)temp
C
wind
direction
speed
KPH
gust
KPH
rain 1hr
cm
rain 24hr
cm
rain mn
cm
humidity
%
barometer
mb
20260505125022 11 0 0.0 0.0 0.00 0.23 0.18 97 1013.5
20260505124021 11 0 0.0 0.0 0.00 0.23 0.18 97 1013.6
20260505123045 11 0 0.0 0.0 0.00 0.23 0.18 97 1013.6
20260505122039 11 0 0.0 0.0 0.00 0.23 0.18 97 1013.6
20260505115021 11 0 0.0 0.0 0.00 0.23 0.18 98 1013.7
20260505114043 11 0 0.0 0.0 0.00 0.23 0.18 98 1013.7
20260505112023 11 0 0.0 0.0 0.00 0.23 0.18 98 1013.9
20260505111021 11 0 0.0 0.0 0.00 0.23 0.18 98 1014.0
20260505102041 11 0 0.0 0.0 0.00 0.23 0.18 98 1014.3
20260505101021 11 0 0.0 0.0 0.00 0.23 0.18 98 1014.3
20260505095044 11 0 0.0 0.0 0.03 0.23 0.18 99 1014.3
20260505094038 11 0 0.0 0.0 0.03 0.23 0.18 99 1014.3
20260505093039 11 0 0.0 0.0 0.03 0.23 0.18 99 1014.3
20260505092035 10 0 0.0 0.0 0.03 0.23 0.18 99 1014.3
20260505091044 10 0 0.0 0.0 0.03 0.23 0.18 99 1014.3
20260505090038 10 0 0.0 0.0 0.03 0.23 0.18 99 1014.3
20260505084039 10 0 0.0 0.0 0.03 0.20 0.15 99 1014.3
20260505083021 11 0 0.0 0.0 0.03 0.20 0.15 99 1014.4
20260505080030 11 0 0.0 0.0 0.05 0.20 0.15 98 1014.4
20260505075033 11 0 0.0 0.0 0.05 0.20 0.15 99 1014.5
20260505074022 11 0 0.0 0.0 0.08 0.20 0.15 99 1014.4
20260505073032 11 0 0.0 0.0 0.08 0.18 0.15 98 1014.4
20260505072034 11 0 0.0 0.0 0.08 0.18 0.15 99 1014.4
20260505071037 11 0 0.0 0.0 0.08 0.18 0.15 99 1014.5
20260505070038 11 0 0.0 0.0 0.05 0.15 0.13 99 1014.6
20260505065040 11 0 0.0 0.0 0.05 0.15 0.13 99 1014.6
20260505064027 11 0 0.0 0.0 0.05 0.15 0.10 99 1014.6
20260505062023 11 0 0.0 0.0 0.03 0.10 0.05 98 1014.6
20260505061021 11 0 0.0 0.0 0.03 0.10 0.05 98 1014.6
20260505060030 11 0 0.0 0.0 0.05 0.10 0.05 98 1014.5
20260505055041 11 0 0.0 0.0 0.05 0.10 0.05 98 1014.5
20260505054022 11 0 0.0 0.0 0.05 0.10 0.05 99 1014.5
20260505053031 11 0 0.0 0.0 0.05 0.10 0.05 99 1014.5
20260505052039 11 0 0.0 0.0 0.05 0.10 0.05 99 1014.5
20260505041039 11 0 0.0 0.0 0.00 0.05 0.00 98 1014.7
20260505040037 11 0 0.0 0.0 0.00 0.05 0.00 98 1014.8
20260505034039 11 0 0.0 0.0 0.00 0.05 0.00 98 1014.9
20260505033043 11 0 0.0 0.0 0.00 0.05 0.00 98 1015.0
20260505032023 11 0 0.0 0.0 0.00 0.05 0.00 98 1015.1
20260505031040 11 0 0.0 0.0 0.00 0.05 0.00 98 1015.3
20260505025037 11 0 0.0 0.0 0.00 0.05 0.00 98 1015.5
20260505024041 11 0 0.0 0.0 0.00 0.05 0.00 98 1015.5
20260505023043 11 0 0.0 0.0 0.00 0.05 0.00 98 1015.4
20260505022040 11 0 0.0 0.0 0.00 0.05 0.00 98 1015.4
20260505021042 11 0 0.0 0.0 0.00 0.05 0.00 98 1015.5
20260505020043 11 0 0.0 0.0 0.00 0.05 0.00 98 1015.4
20260505015041 11 0 0.0 0.0 0.00 0.05 0.00 98 1015.4
20260505014039 11 0 0.0 0.0 0.00 0.05 0.00 98 1015.4
20260505013039 11 0 0.0 0.0 0.00 0.05 0.00 98 1015.4
20260505012043 10 0 0.0 0.0 0.00 0.05 0.00 98 1015.4
20260505010032 10 0 0.0 0.0 0.00 0.05 0.00 98 1015.5
20260505005038 10 0 0.0 0.0 0.00 0.05 0.00 98 1015.6
20260505004040 10 0 0.0 0.0 0.00 0.05 0.00 98 1015.7
20260505003041 10 0 0.0 0.0 0.00 0.05 0.00 98 1015.8
20260505002039 10 0 0.0 0.0 0.00 0.05 0.00 98 1016.0
20260505001042 10 0 0.0 0.0 0.00 0.05 0.00 98 1016.1
20260505000047 10 0 0.0 0.0 0.00 0.05 0.00 98 1016.2
20260504235045 10 0 0.0 0.0 0.00 0.05 0.00 98 1016.2
20260504233043 10 0 0.0 0.0 0.00 0.05 0.00 98 1016.5
20260504232044 10 0 0.0 0.0 0.00 0.05 0.00 98 1016.5
20260504231046 10 0 0.0 0.0 0.00 0.05 0.00 98 1016.6
20260504224046 9 0 0.0 0.0 0.00 0.05 0.00 98 1016.8
20260504223047 9 0 0.0 0.0 0.00 0.05 0.00 98 1016.9
20260504221046 9 0 0.0 0.0 0.00 0.05 0.00 97 1017.1
20260504220043 9 0 0.0 0.0 0.00 0.05 0.00 97 1017.2
20260504215046 9 0 0.0 0.0 0.00 0.05 0.05 97 1017.2
20260504214049 10 0 0.0 0.0 0.00 0.05 0.05 97 1017.3
20260504213047 9 0 0.0 0.0 0.00 0.05 0.05 97 1017.4
20260504212049 9 0 0.0 0.0 0.00 0.05 0.05 96 1017.5
20260504211046 10 0 0.0 0.0 0.00 0.05 0.05 96 1017.4
20260504210049 10 0 0.0 0.0 0.00 0.05 0.05 96 1017.5
20260504205046 10 0 0.0 0.0 0.00 0.05 0.05 96 1017.5
20260504203049 10 0 0.0 0.0 0.00 0.05 0.05 95 1017.6
20260504202057 10 0 0.0 0.0 0.00 0.05 0.05 95 1017.6
20260504200051 10 0 0.0 0.0 0.00 0.05 0.05 94 1017.5
20260504194049 11 0 0.0 0.0 0.00 0.05 0.05 93 1017.2
20260504193045 11 0 0.0 0.0 0.00 0.05 0.05 93 1017.1
20260504192049 11 0 0.0 0.0 0.00 0.05 0.05 93 1016.9
20260504191046 11 0 0.0 0.0 0.00 0.05 0.05 93 1016.9
20260504190049 12 0 0.0 0.0 0.00 0.05 0.05 93 1016.9
20260504185051 12 0 0.0 0.0 0.00 0.05 0.05 92 1016.8
20260504183045 12 0 0.0 0.0 0.00 0.05 0.05 91 1016.5
20260504182047 13 0 0.0 0.0 0.00 0.05 0.05 90 1016.5
20260504181047 13 0 0.0 0.0 0.00 0.05 0.05 89 1016.5
20260504180047 13 0 0.0 0.0 0.00 0.05 0.05 88 1016.6
20260504175046 13 0 0.0 0.0 0.00 0.05 0.05 88 1016.6
20260504174046 13 0 0.0 0.0 0.00 0.05 0.05 88 1016.7
20260504173049 13 0 0.0 0.0 0.00 0.05 0.05 89 1016.7
20260504172044 13 0 0.0 0.0 0.00 0.05 0.05 89 1016.7
20260504171047 13 0 0.0 0.0 0.00 0.05 0.05 89 1016.7
20260504141040 14 0 0.0 0.0 0.05 0.05 0.05 89 1017.3